Theta_e
322 325 328 326 326 324 325 328 326 321 320 322 322 317 314 313 314 315 320 325 328 328 329 328 328 328 327 328 328 326 325 325 324 325 324 322 322 320 319 318 317 316 315 315
322 328 320 324 325 325 327 328 326 322 322 321 317 316 314 313 312 313 316 320 324 327 328 329 328 327 327 326 325 325 324 324 322 321 321 320 319 318 317 316 315 315 314 313
324 319 318 325 326 328 327 328 323 323 320 318 317 320 316 311 310 311 312 316 318 321 323 326 328 328 327 327 326 325 324 322 322 321 319 319 318 317 316 314 313 312 312 311
316 316 322 325 323 325 328 322 323 322 324 325 319 328 319 311 310 310 311 312 314 315 317 320 323 325 326 326 324 320 318 318 318 318 319 319 318 315 314 310 309 309 309 306
314 315 319 320 320 320 323 321 322 323 324 322 320 322 319 312 311 311 311 311 312 313 314 314 315 316 316 314 313 312 312 312 312 312 312 312 312 312 307 304 303 302 302 302
313 312 313 317 316 318 317 317 316 315 320 325 322 324 321 312 313 310 311 312 311 310 309 309 309 309 308 308 308 307 306 305 305 304 304 304 303 302 302 301 300 300 299 298
312 312 311 311 317 316 317 321 321 323 323 325 316 320 325 311 308 309 311 311 309 309 309 308 307 307 306 306 305 304 303 303 302 302 301 301 300 299 298 297 297 297 296 296
317 317 313 310 313 318 316 318 322 327 322 318 314 321 321 309 309 311 311 309 309 309 308 306 306 305 305 304 303 302 301 300 299 299 298 297 297 297 296 295 295 295 295 295
315 315 310 310 310 313 314 317 312 312 309 311 311 307 306 306 308 309 309 309 309 307 306 305 304 304 303 302 301 300 298 298 297 296 296 295 295 295 295 295 295 295 295 295
313 315 311 311 310 311 313 311 315 314 317 318 310 307 309 308 309 309 308 308 307 306 305 304 303 303 302 301 300 299 298 297 295 295 295 295 295 295 295 295 295 295 295 295
312 313 312 311 313 314 312 313 313 313 315 320 320 312 306 309 308 309 308 307 307 306 305 304 303 302 301 300 299 298 298 296 295 295 295 295 295 295 295 295 295 295 295 295
310 311 314 313 307 309 311 312 312 316 311 310 308 306 304 306 308 310 308 307 307 307 306 305 304 302 301 299 298 298 298 296 295 295 295 295 295 295 295 295 295 295 296 296
306 305 312 314 310 304 308 308 310 309 307 309 309 307 305 305 306 309 308 307 307 306 306 306 305 303 301 299 298 298 297 296 295 294 294 295 295 295 295 295 296 296 296 296
305 305 310 314 312 307 307 307 308 309 309 308 308 306 305 306 306 306 307 307 307 306 306 306 305 305 303 299 298 298 297 296 294 294 294 295 295 295 295 296 296 296 296 296
303 301 303 305 304 305 306 307 307 309 310 309 308 306 306 306 305 305 307 307 307 307 307 306 306 306 303 300 298 297 297 297 295 294 295 295 295 295 296 296 296 296 295 295
302 299 301 298 302 302 302 303 304 305 309 309 309 309 305 306 306 305 306 306 306 307 307 307 307 306 304 301 298 297 297 297 295 294 294 294 295 295 296 296 295 295 294 294
298 297 293 295 297 296 299 300 302 303 303 306 309 310 304 303 303 305 306 306 306 307 308 308 307 307 305 302 298 297 297 296 295 294 294 294 295 296 295 295 295 294 293 292
291 289 284 290 288 295 300 299 300 301 302 303 304 304 304 305 307 307 308 308 307 308 308 308 308 307 305 301 298 297 296 295 294 294 294 295 296 295 295 294 293 293 292 291
296 295 288 294 283 295 299 297 297 298 299 299 301 302 303 305 304 305 307 308 309 309 309 309 308 306 303 300 297 296 295 294 294 294 295 296 295 294 294 293 292 292 291 290
297 293 292 284 288 289 296 298 297 298 297 299 298 299 299 302 303 303 306 307 308 309 309 308 307 305 301 298 297 295 294 294 294 295 296 295 294 293 292 292 291 291 290 289
295 295 289 286 286 291 294 297 297 294 299 297 298 297 300 301 304 304 305 306 306 307 308 307 305 302 299 297 296 295 294 294 295 296 295 294 293 292 291 291 290 289 289 289
298 299 291 281 288 297 296 295 296 297 298 297 298 299 301 303 304 304 304 304 305 305 305 303 301 299 297 296 295 294 294 295 295 295 294 293 292 291 290 290 289 290 290 290
298 295 296 295 297 297 297 298 300 298 298 299 299 299 300 302 303 303 304 303 303 303 302 302 299 297 296 295 294 294 295 295 295 294 293 291 290 290 289 290 290 290 289 288
292 291 293 295 296 296 300 301 301 301 301 301 300 300 299 301 302 302 303 304 302 301 301 300 297 296 295 295 294 295 295 295 294 293 291 290 290 289 290 291 289 288 287 285
295 294 291 293 297 299 302 302 302 303 303 303 302 302 301 299 301 302 303 300 298 298 297 297 296 296 295 294 295 295 295 294 292 291 290 290 289 291 290 288 287 285 283 282
292 295 299 299 301 302 302 303 302 303 303 303 302 303 303 302 300 301 302 301 298 297 297 296 296 295 295 295 295 295 294 292 291 291 290 289 291 290 288 286 284 283 282 281
Wind_Speed
14 8 19 15 13 6 11 9 8 4 6 4 5 3 2 1 4 6 11 15 15 16 15 16 15 17 14 11 10 9 10 10 10 11 10 11 12 14 15 15 14 15 17 16
5 13 5 13 7 8 15 13 6 5 4 3 3 4 1 2 2 4 7 15 17 17 16 18 17 16 16 14 12 12 12 12 8 9 13 14 14 13 11 10 11 13 14 15
3 4 4 8 6 14 5 16 8 7 5 2 4 4 4 2 3 4 8 11 14 15 14 17 19 20 17 16 14 14 13 12 11 12 13 12 13 12 11 11 12 12 14 15
5 3 5 12 4 4 5 3 9 16 13 4 3 4 6 7 6 6 10 12 15 16 15 15 15 16 16 13 12 13 12 10 10 10 11 12 12 11 12 15 13 12 13 14
2 6 7 6 3 2 4 5 9 8 13 5 5 3 2 9 8 9 14 15 16 16 16 16 15 14 13 11 8 7 5 5 5 5 6 6 7 9 10 10 11 12 13 15
4 3 4 3 7 6 11 10 8 6 2 5 6 9 4 7 13 5 10 18 19 19 18 17 17 15 14 12 9 7 4 2 1 1 2 3 4 5 7 10 12 14 15 16
7 5 5 6 7 5 2 6 2 1 2 3 2 5 9 7 6 9 18 27 25 21 20 19 17 15 13 10 8 5 4 2 2 3 3 4 6 8 10 13 15 16 17 17
3 2 2 4 3 2 2 0 4 5 4 2 2 6 5 5 15 22 30 32 26 22 21 18 16 13 11 8 6 5 4 2 2 2 3 5 7 8 10 12 13 16 18 20
4 2 2 1 3 2 2 2 2 4 1 2 4 6 7 3 5 15 22 29 27 24 22 19 15 12 9 8 7 6 4 2 2 2 3 4 6 7 9 11 14 16 18 20
2 4 2 2 2 6 0 4 4 1 5 4 4 5 6 5 11 12 16 25 30 26 23 20 16 13 11 9 7 7 4 1 1 2 3 5 7 9 11 13 15 18 21 24
3 2 2 3 3 5 2 2 2 3 2 3 2 5 2 13 16 19 23 28 33 29 26 21 16 13 11 10 9 9 5 2 0 0 3 5 7 9 12 15 19 23 25 27
4 3 3 0 3 4 1 2 3 3 4 3 1 5 3 4 13 21 25 25 32 30 27 21 17 15 13 11 11 11 8 4 3 4 4 6 9 12 16 20 23 26 30 31
6 1 3 2 1 1 4 7 6 1 1 5 4 4 4 4 9 19 22 28 34 31 29 25 20 18 14 13 14 14 11 6 6 6 7 9 13 16 19 24 28 31 34 35
4 3 4 4 3 4 5 6 8 6 3 3 5 6 4 3 6 13 25 31 37 35 31 28 24 20 17 15 16 15 12 9 9 9 10 12 16 20 24 28 31 33 35 37
4 3 2 1 2 0 2 4 7 8 13 8 2 8 5 5 9 23 29 31 36 38 34 32 27 23 19 17 18 16 14 12 12 12 12 15 20 23 28 32 34 35 37 39
2 1 2 3 2 2 3 5 7 8 13 10 16 20 8 10 9 15 26 31 36 43 39 34 30 25 22 19 18 16 15 14 16 16 16 20 24 27 31 33 34 36 39 40
3 5 3 4 4 4 6 10 17 6 6 12 14 21 6 10 12 23 28 34 40 44 43 38 34 28 23 19 17 17 14 16 17 17 18 23 27 30 32 33 35 38 41 45
4 4 3 3 3 3 6 1 3 12 13 12 12 7 7 14 28 27 29 31 36 44 45 40 34 28 23 19 17 16 15 16 17 17 21 25 29 31 31 34 37 41 45 47
3 4 3 4 3 7 8 4 7 7 9 11 19 20 22 13 12 20 28 30 30 35 41 38 31 25 20 19 18 16 16 16 17 20 23 27 29 30 33 37 41 44 48 50
4 6 4 3 4 6 6 2 3 3 5 3 10 11 10 15 8 7 23 26 27 33 36 33 28 24 21 19 17 15 15 15 18 22 25 26 28 32 36 40 43 47 47 47
3 2 5 3 2 8 9 4 6 6 5 7 9 10 17 10 10 3 7 21 27 27 29 26 24 22 19 18 15 14 15 17 21 24 25 26 29 34 38 41 43 43 45 44
7 8 4 3 3 9 9 7 6 4 3 7 14 9 14 21 7 12 4 10 19 20 21 22 20 19 18 15 15 15 17 20 23 24 25 27 31 35 38 40 40 40 40 41
3 7 6 9 7 4 20 9 14 10 6 7 16 14 6 14 15 9 8 7 12 18 20 18 17 18 15 15 14 16 19 22 24 24 26 30 32 36 36 37 37 38 37 38
4 7 2 3 6 13 23 24 29 21 19 17 13 11 10 8 12 19 15 13 15 17 18 17 18 16 14 15 16 19 21 23 23 25 28 31 34 35 34 34 34 34 34 34
4 10 7 5 10 16 22 23 23 23 24 26 23 18 14 11 9 12 14 16 16 16 17 17 15 15 15 16 17 20 21 22 23 26 29 32 32 32 32 31 30 30 27 26
11 7 6 6 14 13 22 26 15 15 18 18 17 19 20 17 12 13 17 17 19 17 16 14 15 15 15 15 19 21 21 22 25 27 29 29 30 31 29 28 26 22 22 22
Wind_Direction
163 175 193 185 183 128 158 160 154 113 159 153 207 232 265 283 185 184 207 208 211 213 208 198 202 211 221 216 223 248 252 262 271 271 282 289 291 294 298 305 308 313 315 308
124 191 139 135 130 154 156 161 149 64 112 113 201 229 276 185 206 212 189 190 196 204 205 202 207 204 211 223 228 235 245 257 259 268 276 283 285 286 291 303 313 319 326 327
105 93 130 148 124 154 166 172 164 154 135 62 131 276 212 194 154 184 197 189 193 194 194 196 204 210 210 213 222 234 251 264 260 255 263 268 275 287 301 306 320 319 318 319
58 2 142 140 169 153 163 110 161 139 148 201 182 249 223 199 207 210 222 203 205 198 191 190 189 197 206 215 229 244 250 253 255 258 262 269 279 292 301 316 320 321 313 317
332 28 57 86 115 213 113 149 144 166 158 136 188 263 217 166 213 219 221 210 210 201 197 195 198 204 202 188 181 184 198 221 236 251 264 271 280 293 307 323 336 340 338 335
69 39 41 49 43 102 121 91 63 56 93 224 177 208 211 192 210 173 202 207 187 172 163 160 155 154 151 148 150 155 162 183 203 348 357 351 350 346 341 340 342 341 339 336
16 11 359 36 85 11 181 131 96 116 198 236 312 210 253 202 226 197 186 185 176 170 168 165 163 161 159 160 165 168 163 145 95 46 19 1 349 347 344 341 338 335 334 334
125 167 352 359 21 138 93 32 149 179 194 156 91 236 233 204 214 196 189 178 174 175 175 172 171 167 167 170 162 142 128 113 61 10 345 341 341 343 343 343 343 342 342 341
136 91 7 342 5 357 144 114 113 98 21 109 210 276 287 130 147 162 172 178 181 180 178 176 175 176 180 173 158 160 145 92 346 341 1 0 356 353 353 351 349 344 340 336
144 108 356 333 85 24 72 132 114 50 149 226 258 268 244 216 185 180 180 184 185 182 181 181 182 185 185 180 180 176 168 360 20 37 23 359 358 355 349 344 340 337 335 331
124 86 145 215 183 165 128 136 96 104 155 180 305 259 245 201 188 187 189 190 188 186 186 187 187 191 194 196 196 199 223 289 298 346 350 351 340 331 330 331 331 327 325 323
192 118 144 63 76 138 194 176 158 127 214 237 244 275 343 261 191 186 188 190 193 191 192 193 198 203 208 211 210 215 231 258 251 265 303 320 320 322 324 324 323 322 323 321
181 183 97 115 155 95 202 193 196 207 129 218 167 263 22 20 162 188 187 194 196 196 199 201 206 214 218 222 220 224 232 258 271 275 300 316 319 321 320 319 322 321 319 318
155 156 186 190 150 127 195 188 191 186 174 231 230 289 318 61 180 188 196 202 200 202 203 206 213 219 226 229 228 230 236 259 275 285 301 316 316 317 318 319 318 317 317 316
146 171 139 106 93 238 209 198 187 202 225 219 242 228 251 228 200 203 203 202 204 206 208 211 217 223 228 234 233 234 242 257 275 288 305 318 314 317 317 316 318 318 317 316
17 167 96 324 348 340 274 244 230 227 240 250 258 269 220 255 218 202 207 204 207 209 211 215 222 226 232 239 239 239 250 259 272 286 306 314 316 315 316 317 318 316 316 317
122 134 96 266 353 347 307 219 211 200 211 206 227 240 169 204 205 208 207 211 214 215 214 218 223 229 237 245 239 239 255 262 275 290 307 311 312 314 317 316 316 316 316 316
125 95 62 213 22 323 244 124 188 220 251 231 265 264 221 222 228 230 226 219 218 218 217 221 226 232 239 241 232 240 253 266 277 292 302 309 311 315 315 315 316 317 317 317
30 111 97 136 194 303 297 195 170 173 273 220 231 249 241 237 240 239 229 227 228 222 221 225 230 234 239 237 230 242 254 270 284 296 305 310 312 313 314 316 318 318 317 318
57 61 115 87 140 218 242 227 189 120 298 251 229 251 204 162 220 239 230 220 221 225 224 228 226 230 231 228 233 246 262 277 290 300 306 310 311 313 317 317 318 318 319 321
122 50 165 159 223 290 244 182 145 81 241 325 317 308 186 196 214 143 214 217 220 222 226 227 220 226 226 222 239 257 271 285 294 301 307 310 312 313 314 316 319 322 324 323
163 159 183 97 86 272 157 97 167 222 347 359 1 349 218 215 257 224 229 211 206 205 199 201 207 210 209 233 250 265 280 291 298 305 308 309 311 314 317 320 322 324 326 326
225 183 180 184 205 237 193 215 230 264 294 328 344 352 318 227 211 186 186 171 196 202 198 203 206 201 221 240 257 275 284 293 301 306 305 308 314 319 322 325 327 328 329 328
245 181 199 90 259 235 237 240 251 261 267 284 297 314 335 286 240 229 225 220 204 194 199 198 197 214 234 255 271 281 292 298 302 303 309 316 321 323 326 330 332 332 335 336
175 142 171 267 275 282 279 261 258 262 269 274 270 279 293 301 271 222 216 195 189 188 187 198 216 232 247 263 275 286 293 297 299 308 316 321 325 329 332 334 338 341 346 343
191 179 180 217 220 207 252 276 282 279 275 281 279 269 268 269 274 243 214 207 203 200 203 215 232 245 257 267 279 285 290 294 304 312 318 325 329 331 333 337 346 2 357 355